Airfield :
LOGIN :

Register | Disclaimer

   EN    FR    IT 

 










Legend :    VFR   Marginal VFR   IFR   Intensive IFR   Very Intensive IFR
Visi :
Ceiling :
>= 8 km
>= 3000ft
5 to 8 km
1000 to 3000 ft
1500m to 5 km
500 to 1000 ft
800 to 1500m
200 to 500 ft
< 800m
< 200 ft
Symbols :   Thunderstorms  Fog  Heavy snow  Heavy precipitations  Wind > 20 kt
SIGMETs :     Misc.  Thunderstorms  Icing  Turbulence  Mountain Waves  Volcanic Ashes







- Airport Elevation : 336 ft
- IATA code : GCI
- Download approach charts


EGJB - Guernsey

CURRENT METAR :
  • 222050Z 33007KT 9999 FEW015 14/10 Q1018

EXPIRED METARs :
  • 221950Z 32008KT CAVOK 14/10 Q1018
  • 221920Z 33007KT CAVOK 15/10 Q1018
  • 221850Z 34006KT CAVOK 16/10 Q1017

TAF TAF EGJB
Valid from the 22 at 21:00 until the 23 at 06:00 UTC


222003Z 2221/2306 01009KT CAVOK
PROB30
TEMPO 2221/2306 7000
ATIS : +44 1481 238 957
No reported NOTAMs for that airfield.



MET'MAP, your aeronautical weather chart ! - Copyright ORBIFLY December 2007 - Disclaimer

ORBIFLY MET'MAP TEAM :

Programming & Development : Alexandra Zaïnal
Concept & Development : Baudouin d'Aumeries
Co-Development & Prog : Marc-Olivier Méhu
Technical & hardware support : Manuel Goepfert

Contact : metmap@orbifly.com




SOURCES & CREDITS :

   NOAA